Regional Weather Roundup
Issued by NWS Boston, MA

Current Version | Previous Version | Text Only | Print | Product List | Glossary Off
Versions: 1 2 3 4 5 6 7 8 9 10 11 12 13 14 15 16 17 18 19 20 21 22 23 24 25 26 27

000
ASUS41 KBOX 210110
RWRBOX

REGIONAL WEATHER ROUNDUP
NATIONAL WEATHER SERVICE TAUNTON MA
900 PM EDT WED SEP 20 2017

NOTE:  "FAIR" INDICATES FEW OR NO CLOUDS BELOW 12,000 FEET WITH NO
SIGNIFICANT WEATHER AND/OR OBSTRUCTIONS TO VISIBILITY.

MAZALL-210200-
EASTERN MASSACHUSETTS

CITY           SKY/WX    TMP DP  RH WIND       PRES   REMARKS
BOSTON         CLOUDY    71  67  87 N13       29.87F
BEVERLY        CLOUDY    69  66  90 NE8       29.88S
LAWRENCE       CLOUDY    73  67  81 N9        29.92S
BEDFORD        CLOUDY    71  64  78 N10G18    29.88F
BLUE HILL        N/A     68  65  90 N13G23    29.87F
NORWOOD        CLOUDY    73  68  84 N10       29.85F
MARSHFIELD     CLOUDY    64  64 100 N8G16     29.84S FOG
PLYMOUTH       CLOUDY    68  63  84 N21G37    29.83S
TAUNTON        CLOUDY    69  65  86 N13G21    29.83S
NEW BEDFORD    CLOUDY    69  64  84 N18G28    29.80S
$$

MAZALL-210200-
CAPE COD AND THE ISLANDS

CITY           SKY/WX    TMP DP  RH WIND       PRES   REMARKS
FALMOUTH       DRIZZLE   66  66 100 N20G32    29.78S
HYANNIS        LGT RAIN  64  63  96 N21G32    29.73F FOG
CHATHAM        LGT RAIN  67  67 100 N14G30    29.73F
PROVINCETOWN   CLOUDY    64  63  96 NE22G29   29.81S
NANTUCKET      HVY RAIN  66  66 100 N33G45    29.66S FOG
MARTHAS VNYRD  LGT RAIN  69  66  90 N26G39    29.74R
$$

MAZALL-210200-
CENTRAL AND WESTERN MASSACHUSETTS

CITY           SKY/WX    TMP DP  RH WIND       PRES   REMARKS
WORCESTER      CLOUDY    67  63  87 N12G21    29.94R
FITCHBURG      CLOUDY    72  66  81 N8        29.94S
ORANGE         CLOUDY    70  65  84 N5        29.95S
SPRINGFIELD    MOCLDY    69  64  83 NE9       29.92F
WESTFIELD      CLOUDY    73  65  75 NE9       29.94R
NORTH ADAMS    CLOUDY    70  63  78 CALM      29.98R
PITTSFIELD     CLOUDY    70  63  78 N6        29.98R
$$

RIZALL-210200-
RHODE ISLAND

CITY           SKY/WX    TMP DP  RH WIND       PRES   REMARKS
PROVIDENCE     CLOUDY    70  68  93 N14       29.85F
NEWPORT        CLOUDY    70  67  90 N22G29    29.81S
BLOCK ISLAND   CLOUDY    69  66  90 N21G32    29.81S
SMITHFIELD     CLOUDY    67  66  97 N12G20    29.87F
WESTERLY       CLOUDY    72  66  81 N15G23    29.84S
$$

CTZALL-210200-
CONNECTICUT

CITY           SKY/WX    TMP DP  RH WIND       PRES   REMARKS
BRADLEY INTL   CLOUDY    72  65  78 N14       29.93R
HARTFORD       CLOUDY    74  65  73 N14       29.91R
BRIDGEPORT     CLOUDY    75  63  66 N14G20    29.89S
DANBURY        CLOUDY    73  65  75 N6        29.94S
GROTON         CLOUDY    72  65  78 N14G22    29.84S
NEW HAVEN      MOCLDY    75  64  68 N20G29    29.89R
CHESTER        CLOUDY    73  66  78 N12G20    29.90R
MERIDEN        CLOUDY    74  63  68 N12       29.91R
WILLIMANTIC    CLOUDY    72  66  81 N12       29.89S
OXFORD         CLOUDY    71  63  75 N13       29.94R
$$

MEZ002-015-021-024-NHZ003-005-008-011-012-014-VTZ005-008-210200-
NORTHERN NEW ENGLAND

CITY           SKY/WX    TMP DP  RH WIND       PRES   REMARKS
PORTLAND ME    MOCLDY    71  65  81 N9        29.94S
BANGOR ME      MOCLDY    71  64  78 N12       29.99R
CONCORD NH     MOCLDY    71  64  78 N7        29.96R
MANCHESTER NH  CLOUDY    71  67  87 N10       29.92S
NASHUA NH      CLOUDY    72  67  84 N9        29.93S
PORTSMOUTH NH  MOCLDY    72  65  79 N10       29.90S
JAFFREY NH     CLOUDY    67  67 100 CALM      29.98R
KEENE NH       CLOUDY    68  63  84 CALM      29.97R
BURLINGTON VT  CLOUDY    71  66  84 N6        30.01S
MT. WASHINGTON FOG       52  52 100 E33G39      N/A  VSB 0
$$

NYZ052-076-210200-
EASTERN NEW YORK

CITY           SKY/WX    TMP DP  RH WIND       PRES   REMARKS
ALBANY         CLOUDY    71  63  75 N5        29.98R
NEW YORK CITY  CLOUDY    77  64  64 N10       29.91R
$$

ANZALL-210200-
MARINE OBSERVATIONS

STATION/POSITION TIME  TEMP    WIND        PRES    VSBY  WAVE
                       AIR SEA DIR/SP/G                  HT/PER
                 (UTC) (F)     (DEG/KT/KT) (MB)    (MI)  (FT/S)
BOSTON BUOY      2350   64 61   20/ 19/ 23 1010.8          7/ 7
BUZZARDS BAY     0000   68      10/ 31/ 35 1007.9R
NANTUCKET SOUND  2350   66 62   10/ 25/ 31 1005.2          4/ 5
MASS BAY-STELLWA 0004   64 62   30/ 16/ 19 1010.7S         7/ 6
ISLE OF SHOALS   0000   65      50/ 16/ 18 1012.0R
S OF BLOCK IS    NOT AVBL
$$

......................KEY.........................
  SKY/WX - SKY CONDITION/PRESENT WEATHER
  TMP    - TEMPERATURE IN FAHRENHEIT
  DWPT   - DEWPOINT IN FAHRENHEIT
  RH     - RELATIVE HUMIDITY IN PERCENT
  WIND   - DIRECTION AND SPEED IN MPH
  PRES   - MEAN SEA LEVEL PRESSURE IN INCHES OF HG
  WCI    - WIND CHILL INDEX
  VSB    - VISIBILITY IN MILES
  HX     - HEAT INDEX
  TC     - TEMPERATURE IN CELSIUS
  VRB    - VARIABLE WIND DIRECTION
  N/A    - NOT AVAILABLE




USA.gov is the U.S. government's official web portal to all federal, state and local government web resources and services.